This is the latest recevied weather packets stored in our database for station/object K3BAY-1. If no packets are shown the sender has not sent any weather packets the latest 10 day(s).
| Time | Temp. | Humidity | Pressure | Rain* | Wind** | Luminosity | Snow |
|---|---|---|---|---|---|---|---|
| 1777900337 | 16.67° C | 51% | 1014.6 hPa | 0 mm | - | 42 W/m² | - |
| 1777900034 | 16.11° C | 52% | 1014.2 hPa | 0 mm | - | 42 W/m² | - |
| 1777899729 | 15.56° C | 51% | 1014.2 hPa | 0 mm | - | 41 W/m² | - |
| 1777899427 | 15° C | 53% | 1014.2 hPa | 0 mm | - | 42 W/m² | - |
| 1777899125 | 15.56° C | 54% | 1014.6 hPa | 0 mm | - | 41 W/m² | - |
| 1777898822 | 15.56° C | 55% | 1014.6 hPa | 0 mm | - | 41 W/m² | - |
| 1777898519 | 15° C | 57% | 1014.6 hPa | 0 mm | - | 41 W/m² | - |
| 1777898217 | 15° C | 56% | 1014.9 hPa | 0 mm | - | 41 W/m² | - |
| 1777897914 | 14.44° C | 56% | 1014.6 hPa | 0 mm | - | 40 W/m² | - |
| 1777897610 | 13.89° C | 57% | 1014.6 hPa | 0 mm | - | 42 W/m² | - |
| 1777897305 | 13.89° C | 57% | 1014.6 hPa | 0 mm | - | 48 W/m² | - |
| 1777897002 | 13.89° C | 58% | 1014.6 hPa | 0 mm | - | 53 W/m² | - |
| 1777896699 | 13.33° C | 59% | 1014.9 hPa | 0 mm | - | 46 W/m² | - |
| 1777896396 | 13.33° C | 59% | 1014.2 hPa | 0 mm | - | 42 W/m² | - |
| 1777896093 | 13.33° C | 59% | 1014.2 hPa | 0 mm | - | 40 W/m² | - |
| 1777895791 | 12.78° C | 60% | 1014.6 hPa | 0 mm | - | 40 W/m² | - |
| 1777895488 | 12.78° C | 61% | 1014.6 hPa | 0 mm | - | 33 W/m² | - |
| 1777895186 | 12.78° C | 63% | 1014.6 hPa | 0 mm | - | 35 W/m² | - |
| 1777894883 | 12.22° C | 61% | 1014.6 hPa | 0 mm | - | 42 W/m² | - |
| 1777894581 | 12.22° C | 63% | 1014.9 hPa | 0 mm | - | 46 W/m² | - |
| 1777894278 | 11.67° C | 64% | 1014.9 hPa | 0 mm | - | 42 W/m² | - |
| 1777893974 | 11.67° C | 65% | 1014.9 hPa | 0 mm | - | 35 W/m² | - |
| 1777893671 | 11.67° C | 67% | 1014.9 hPa | 0 mm | - | 30 W/m² | - |
| 1777893367 | 11.11° C | 68% | 1014.9 hPa | 0 mm | - | 26 W/m² | - |
| 1777893063 | 11.11° C | 67% | 1014.9 hPa | 0 mm | - | 24 W/m² | - |
* Rain latest hour (hover to see other rain measurements)
** Current wind speed in m/s (hover to see current wind gust speed)